Change the Weather History Date:

Monday, October 3, 2011

  Actual Average Record
Temperature  
Mean Temperature 57 °F -  
Max Temperature 77 °F 66 °F 80 °F (1909)
Min Temperature 37 °F 29 °F 15 °F (1919)
Degree Days  
Heating Degree Days 8    
Growing Degree Days 7 (Base 50)    
Moisture  
Dew Point 40 °F    
Average Humidity 61    
Maximum Humidity 100    
Minimum Humidity 24    
Precipitation  
Precipitation 0.00 in - - ()
Sea Level Pressure  
Sea Level Pressure 30.25 in    
Wind  
Wind Speed 2 mph (SW)    
Max Wind Speed 18 mph    
Max Gust Speed 24 mph    
Visibility 10 miles    
Events      
Averages and records for this station are not official NWS values.
T = Trace of Precipitation, MM = Missing Value Source: NWS Daily Summary

Daily Weather History Graph

Daily Weather History Graph

Search for Another Location

Airport or City:

Trip Planner

Search our weather history database for the weather conditions in past years. The results will help you decide how hot, cold, wet, or windy it might be!

Date:

Astronomy

Oct. 03, 2011 Rise Set
Actual Time 7:05 AM MDT 6:46 PM MDT
Civil Twilight 6:38 AM MDT 7:13 PM MDT
Nautical Twilight 6:06 AM MDT 7:45 PM MDT
Astronomical Twilight 5:34 AM MDT 8:17 PM MDT
Moon 2:07 PM MDT (10/3) 11:51 PM MDT (10/3)
Length of Visible Light 12h 35m
Length of Day
11h 40m
Waxing Crescent, 46% of the Moon is Illuminated
Oct 3
Waxing Crescent
Oct 3
First Quarter
Oct 11
Full
Oct 19
Last Quarter
Oct 26
New

Hourly Weather History & Observations

Time (MDT) Temp. Windchill Dew Point Humidity Pressure Visibility Wind Dir Wind Speed Gust Speed Precip Events Conditions
12:03 AM 48.0 °F - 40.8 °F 76% 30.32 in 10.0 mi Calm Calm - N/A   Clear
1:23 AM 45.9 °F - 40.6 °F 82% 30.31 in 10.0 mi Calm Calm - N/A   Clear
1:43 AM 45.7 °F - 40.6 °F 83% 30.32 in 10.0 mi Calm Calm - N/A   Clear
2:03 AM 45.3 °F 43.0 °F 39.6 °F 80% 30.32 in 10.0 mi WNW 4.6 mph - N/A   Clear
2:23 AM 44.6 °F - 39.2 °F 81% 30.32 in 10.0 mi Calm Calm - N/A   Clear
2:43 AM 41.5 °F - 40.6 °F 97% 30.32 in 10.0 mi Calm Calm - N/A   Clear
3:03 AM 42.3 °F - 40.1 °F 92% 30.31 in 10.0 mi Calm Calm - N/A   Clear
3:43 AM 41.7 °F - 39.2 °F 91% 30.32 in 10.0 mi Calm Calm - N/A   Clear
4:03 AM 42.8 °F - 39.6 °F 88% 30.32 in 10.0 mi Calm Calm - N/A   Clear
4:23 AM 40.6 °F - 38.8 °F 93% 30.32 in 10.0 mi Calm Calm - N/A   Clear
4:43 AM 41.4 °F - 39.7 °F 94% 30.32 in 10.0 mi Calm Calm - N/A   Clear
5:03 AM 40.8 °F - 39.2 °F 94% 30.32 in 10.0 mi Calm Calm - N/A   Clear
5:23 AM 41.7 °F - 38.8 °F 89% 30.33 in 10.0 mi Calm Calm - N/A   Clear
5:43 AM 40.8 °F - 39.4 °F 95% 30.33 in 10.0 mi Calm Calm - N/A   Clear
6:03 AM 39.6 °F - 39.7 °F 100% 30.33 in 10.0 mi Calm Calm - N/A   Clear
6:23 AM 39.4 °F - 39.6 °F 100% 30.34 in 10.0 mi Calm Calm - N/A   Clear
6:43 AM - - - N/A% 30.34 in 10.0 mi Calm Calm - N/A   Clear
7:03 AM 37.8 °F - 37.9 °F 100% 30.34 in 10.0 mi Calm Calm - N/A   Clear
7:23 AM 37.8 °F - 38.1 °F 100% 30.35 in 10.0 mi Calm Calm - N/A   Clear
7:43 AM 38.7 °F - 38.8 °F 100% 30.34 in 10.0 mi Calm Calm - N/A   Clear
8:03 AM 39.4 °F - 39.6 °F 100% 30.34 in 10.0 mi Calm Calm - N/A   Clear
8:23 AM 40.3 °F - 40.3 °F 100% 30.34 in 10.0 mi Calm Calm - N/A   Clear
8:43 AM 41.9 °F - 41.0 °F 97% 30.34 in 10.0 mi Calm Calm - N/A   Clear
9:03 AM 45.5 °F - 40.5 °F 83% 30.34 in 10.0 mi Calm Calm - N/A   Clear
9:44 AM 50.7 °F - 40.8 °F 69% 30.33 in 10.0 mi Calm Calm - N/A   Clear
10:24 AM 56.3 °F - 41.4 °F 57% 30.32 in 10.0 mi Calm Calm - N/A   Clear
10:44 AM 58.3 °F - 41.5 °F 54% 30.31 in 10.0 mi Calm Calm - N/A   Clear
11:04 AM 59.0 °F - 41.9 °F 53% 30.31 in 10.0 mi Calm Calm - N/A   Clear
12:04 PM 67.5 °F - 39.9 °F 37% 30.27 in 10.0 mi Calm Calm - N/A   Mostly Cloudy
12:24 PM 69.4 °F - 40.8 °F 35% 30.26 in 10.0 mi West 4.6 mph - N/A   Scattered Clouds
12:44 PM 70.5 °F - 40.1 °F 33% 30.24 in 10.0 mi NW 3.5 mph - N/A   Clear
1:04 PM 71.4 °F - 41.0 °F 33% 30.23 in 10.0 mi Calm Calm - N/A   Clear
1:24 PM 73.9 °F - 39.9 °F 29% 30.21 in 10.0 mi Calm Calm - N/A   Clear
1:44 PM 74.3 °F - 38.7 °F 28% 30.20 in 10.0 mi Calm Calm - N/A   Clear
2:04 PM 74.7 °F - 38.1 °F 27% 30.19 in 10.0 mi North 4.6 mph - N/A   Clear
2:24 PM 77.2 °F - 37.2 °F 24% 30.18 in 10.0 mi SW 6.9 mph - N/A   Scattered Clouds
2:44 PM 73.8 °F - 40.5 °F 30% 30.19 in 10.0 mi WSW 15.0 mph 24.2 mph N/A   Scattered Clouds
3:04 PM 73.2 °F - 37.9 °F 28% 30.19 in 10.0 mi WSW 18.4 mph 21.9 mph N/A   Scattered Clouds
3:24 PM 74.3 °F - 37.0 °F 26% 30.19 in 10.0 mi WNW 9.2 mph - N/A   Scattered Clouds
3:44 PM 72.5 °F - 36.5 °F 27% 30.18 in 10.0 mi West 9.2 mph - N/A   Scattered Clouds
4:04 PM 73.6 °F - 37.0 °F 26% 30.18 in 10.0 mi WSW 6.9 mph - N/A   Clear
4:24 PM 73.0 °F - 36.5 °F 26% 30.17 in 10.0 mi West 3.5 mph - N/A   Scattered Clouds
4:44 PM 70.5 °F - 37.2 °F 30% 30.17 in 10.0 mi WSW 5.8 mph - N/A   Scattered Clouds
5:04 PM 69.4 °F - 38.1 °F 32% 30.17 in 10.0 mi SW 5.8 mph - N/A   Mostly Cloudy
5:24 PM 68.4 °F - 39.7 °F 35% 30.17 in 10.0 mi SSW 3.5 mph - N/A   Scattered Clouds
5:44 PM 67.8 °F - 38.8 °F 35% 30.17 in 10.0 mi SSW 3.5 mph - N/A   Scattered Clouds
6:04 PM 66.4 °F - 39.4 °F 37% 30.17 in 10.0 mi Calm Calm - N/A   Scattered Clouds
6:24 PM 66.2 °F - 39.7 °F 38% 30.16 in 10.0 mi East 3.5 mph - N/A   Scattered Clouds
6:44 PM 64.4 °F - 39.7 °F 40% 30.17 in 10.0 mi SE 4.6 mph - N/A   Mostly Cloudy
7:04 PM 61.9 °F - 41.0 °F 46% 30.17 in 10.0 mi ESE 4.6 mph - N/A   Mostly Cloudy
7:24 PM 63.0 °F - 41.5 °F 45% 30.18 in 10.0 mi SSW 3.5 mph - N/A   Mostly Cloudy
7:44 PM 61.7 °F - 41.9 °F 48% 30.18 in 10.0 mi ENE 3.5 mph - N/A   Scattered Clouds
8:04 PM 61.7 °F - 40.5 °F 46% 30.18 in 10.0 mi Calm Calm - N/A   Scattered Clouds
8:24 PM 61.0 °F - 40.3 °F 46% 30.18 in 10.0 mi Calm Calm - N/A   Scattered Clouds
8:44 PM 60.1 °F - 41.0 °F 49% 30.19 in 10.0 mi SSE 4.6 mph - N/A   Scattered Clouds
9:04 PM 58.8 °F - 41.9 °F 53% 30.20 in 10.0 mi SE 4.6 mph - N/A   Mostly Cloudy
9:24 PM 58.5 °F - 41.2 °F 53% 30.21 in 10.0 mi SE 4.6 mph - N/A   Overcast
9:44 PM 58.3 °F - 41.4 °F 53% 30.23 in 10.0 mi Calm Calm - N/A   Overcast
10:04 PM 57.2 °F - 44.8 °F 63% 30.22 in 10.0 mi North 3.5 mph - N/A   Overcast
10:24 PM 57.4 °F - 45.3 °F 64% 30.23 in 10.0 mi ESE 3.5 mph - N/A   Overcast
10:44 PM 55.0 °F - 44.6 °F 68% 30.23 in 10.0 mi Calm Calm - N/A   Overcast
11:04 PM 54.7 °F - 47.3 °F 76% 30.22 in 10.0 mi NNW 6.9 mph - N/A   Scattered Clouds
11:44 PM 55.0 °F - 45.7 °F 71% 30.20 in 10.0 mi SE 3.5 mph - N/A   Scattered Clouds